FW1873 Weather Reports


time (UTC)temp
C
wind
direction
speed
KPH
gust
KPH
rain 1hr
cm
rain 24hr
cm
rain mn
cm
humidity
%
barometer
mb
20260503173840 17 221 8.0 22.5 0.00 0.00 0.00 39 1041.9
20260503172837 17 254 6.4 12.9 0.00 0.00 0.00 39 1042.2
20260503171856 17 213 9.7 17.7 0.00 0.00 0.00 39 1042.5
20260503170834 17 231 6.4 16.1 0.00 0.00 0.00 39 1042.5
20260503150840 14 259 8.0 11.3 0.00 0.00 0.00 47 1043.9
20260503130816 8 231 8.0 16.1 0.00 0.00 0.00 1 1044.1
20260503080916 0 0.0 0.0 0.00 0.00 0.00 1 1042.9
20260503072938 0 0.0 0.0 0.00 0.00 0.00 1 1042.9
20260503071837 0 0.0 0.0 0.00 0.00 0.00 1 1042.9
20260503070905 0 0.0 0.0 0.00 0.00 0.00 1 1042.9
20260503054949 0 0.0 0.0 0.00 0.00 0.00 1 1043.2
20260503053917 0 0.0 0.0 0.00 0.00 0.00 1 1043.2
20260503052925 0 0.0 0.0 0.00 0.00 0.00 1 1043.2
20260503052256 0 0.0 0.0 0.00 0.00 0.00 1 1043.2
20260503051314 0 0.0 0.0 0.00 0.00 0.00 1 1043.2
20260503050311 1 0.0 0.0 0.00 0.00 0.00 1 1043.2
20260503045239 1 0.0 0.0 0.00 0.00 0.00 1 1043.2
20260503044337 1 0.0 0.0 0.00 0.00 0.00 1 1043.2
20260503043234 1 0.0 0.0 0.00 0.00 0.00 1 1043.2
20260503042304 1 0.0 0.0 0.00 0.00 0.00 1 1043.2
20260503041331 1 0.0 0.0 0.00 0.00 0.00 1 1043.2
20260503040328 1 0.0 0.0 0.00 0.00 0.00 4 1043.2
20260503035427 1 0.0 0.0 0.00 0.00 0.00 8 1043.2
20260503034226 1 0.0 0.0 0.00 0.00 0.00 14 1043.2
20260503033153 2 0.0 0.0 0.00 0.00 0.00 15 1043.2
20260503031851 2 0.0 0.0 0.00 0.00 0.00 18 1043.2
20260503030949 2 0.0 0.0 0.00 0.00 0.00 23 1043.2
20260503025847 2 0.0 0.0 0.00 0.00 0.00 26 1043.2
20260503024915 2 0.0 0.0 0.00 0.00 0.00 31 1043.2
20260503023744 3 0.0 0.0 0.00 0.00 0.00 36 1043.2
20260503022643 3 0.0 0.0 0.00 0.00 0.00 40 1043.2
20260503021440 3 0.0 0.0 0.00 0.00 0.00 45 1043.1
20260503020438 4 0.0 0.0 0.00 0.00 0.00 47 1042.9
20260503015506 4 0.0 0.0 0.00 0.00 0.00 49 1042.9
20260503014555 5 0.0 0.0 0.00 0.00 0.00 51 1042.9
20260503013603 5 0.0 0.0 0.00 0.00 0.00 53 1042.9
20260503012432 5 0.0 0.0 0.00 0.00 0.00 54 1042.5
20260503011459 6 0.0 0.0 0.00 0.00 0.00 54 1042.5
20260503010457 6 0.0 0.0 0.00 0.00 0.00 54 1042.5
20260503005456 7 0 0.0 1.6 0.00 0.00 0.00 53 1042.5
20260503004453 7 23 0.0 1.6 0.00 0.00 0.00 54 1042.3
20260503003442 7 31 1.6 4.8 0.00 0.00 0.00 54 1042.5
20260503002419 8 0.0 0.0 0.00 0.00 0.00 52 1042.2
20260503001457 8 20 3.2 8.0 0.00 0.00 0.00 52 1042.2
20260503000445 9 28 3.2 8.0 0.00 0.00 0.00 51 1042.2
20260502235442 9 0 0.0 4.8 0.00 0.00 0.00 50 1042.2
20260502234441 10 360 4.8 8.0 0.00 0.00 0.00 49 1041.9
20260502233438 10 31 4.8 12.9 0.00 0.00 0.00 49 1041.9
20260502232437 10 28 4.8 11.3 0.00 0.00 0.00 49 1041.9
20260502231435 10 52 3.2 11.3 0.00 0.00 0.00 47 1041.9
20260502230434 10 88 3.2 11.3 0.00 0.00 0.00 47 1041.9
20260502225432 11 81 4.8 8.0 0.00 0.00 0.00 47 1041.7
20260502224430 11 356 3.2 8.0 0.00 0.00 0.00 46 1041.5
20260502223447 11 220 3.2 12.9 0.00 0.00 0.00 46 1041.5
20260502222425 11 334 3.2 8.0 0.00 0.00 0.00 46 1041.5
20260502221423 12 306 1.6 4.8 0.00 0.00 0.00 46 1041.5
20260502220422 12 58 6.4 12.9 0.00 0.00 0.00 45 1041.5
20260502215450 12 18 4.8 8.0 0.00 0.00 0.00 46 1041.5
20260502214447 12 36 4.8 8.0 0.00 0.00 0.00 44 1041.1
20260502213506 13 7 4.8 11.3 0.00 0.00 0.00 43 1041.1
20260502212443 13 356 4.8 11.3 0.00 0.00 0.00 45 1041.1
20260502211441 13 61 4.8 8.0 0.00 0.00 0.00 43 1041.1
20260502210439 13 355 3.2 11.3 0.00 0.00 0.00 41 1041.1
20260502205437 13 61 4.8 8.0 0.00 0.00 0.00 44 1041.1
20260502204435 13 18 3.2 6.4 0.00 0.00 0.00 43 1041.1
20260502203433 14 22 3.2 8.0 0.00 0.00 0.00 41 1041.1
20260502202431 15 22 4.8 8.0 0.00 0.00 0.00 40 1041.1
20260502201430 15 326 4.8 11.3 0.00 0.00 0.00 43 1041.1
20260502200428 15 293 4.8 6.4 0.00 0.00 0.00 44 1041.1
20260502195426 14 11 4.8 11.3 0.00 0.00 0.00 43 1041.3
20260502194423 13 330 4.8 11.3 0.00 0.00 0.00 42 1041.5
20260502193451 13 304 3.2 11.3 0.00 0.00 0.00 43 1041.5
20260502192449 14 39 4.8 16.1 0.00 0.00 0.00 43 1041.5
20260502191448 14 21 4.8 19.3 0.00 0.00 0.00 45 1041.5
20260502190445 15 273 4.8 17.7 0.00 0.00 0.00 43 1041.9
20260502185444 14 325 1.6 6.4 0.00 0.00 0.00 44 1041.9
20260502184443 15 54 4.8 11.3 0.00 0.00 0.00 44 1041.9
20260502183440 15 327 3.2 6.4 0.00 0.00 0.00 43 1041.9
20260502182448 14 271 4.8 16.1 0.00 0.00 0.00 43 1042.0
20260502181436 14 129 6.4 16.1 0.00 0.00 0.00 44 1041.9
20260502180434 14 180 3.2 11.3 0.00 0.00 0.00 44 1041.9